STARLINK-32806, 62735

Orbit data source: Space-Track

STARLINK-32806, 62735 is a payload satellite owned by SpaceX/Seattle (US) in LEO that was launched on Tue, 21 Jan 2025 UTC via an FALCON 9 launch vehicle from the Air Force Eastern Test Range (AFETR). Payload-class satellites include a variety of spacecraft equipped with specific instruments for various scientific and technological missions. These include communications satellites like Starlink; space stations such as the ISS; scientific satellites like the Hubble; Earth observation satellites from companies like Planet Labs, Umbra, and HawkEye 360; GPS; miniature CubeSats for education and research; and military/defense satellites.

Loading next visibility...
Identifier
62735, 2025-014A
Orbit
LEO
Country
Flag of USUS
Related business
Manufacturer
SpaceX/Seattle
Mission
Operational Commercial Communications
Bus & Motor
STARLINK V2M, Unknown motor
Mass
730 kg wet, ~700 kg dry
Launch date (UTC)
2025-01-21 (11 months ago)
Launch vehicle
FALCON 9
Launch site
Air Force Eastern Test Range (AFETR)
Object type
Payload
Rocket body
Debris
Shape & HBR
Box + 2 Pan, 17.7 m
Radar Cross Section
33.884 m², Large (>1 m²)

Expand to show TLE details & history
Last TLE update: 2 days ago

TLE from 2 days ago
0 STARLINK-32806
1 62735U 25014A   25348.21878391  .00034244  00000-0  12489-2 0  9999
2 62735  42.9999 277.2720 0001671 295.4019  64.6660 15.27560427 50180
Epoch: 2025-12-14T05:15Z
TLE epoch observation values (Epoch: 2025-12-14T05:15:02.929Z)
Latitude
-0°
Longitude
115.37494°
Altitude
482.393 km
Speed
7.626 km/s
True Right ascension
18h 29m 05s
True Declination
0° 00' 00"
Sunlit
Object was in daylight at epoch
Visualization orbit readout
Latitude
Unknown
Longitude
Unknown
Altitude
Unknown
Speed
Unknown
Apparent Right ascension
Unknown
Apparent Declination
Unknown
Sunlit
N/A
Visualization observer readout
Local Sidereal Time
17:23:09
Azimuth
Unknown
Elevation
Unknown
Doppler factor
Unknown
Orbital elements
Apogee altitude
486.2 km
Perigee altitude
483.906 km
Semi-major axis
6,863.19 km
Eccentricity
0.00017
Inclination
42.9999°
RAAN
277.272°
Arg. of periapsis
295.4019°
True anomaly
64.68331°
Mean anomaly
64.666°
Eccentric anomaly
64.67465°
Mean motion
3.81728 °/min
Orbital period
94.31 mins
BSTAR
0.0012489
Loading maneuver chart data...
Computing Atmospheric mass density...
Loading historical data...
Loading historical data...
Loading historical data...
Loading historical data...
Loading historical data...
Loading historical data...
Loading historical data...

Documentation

Showing up to 5 results
|